Location: Clanezzo
(45.7500°N, 9.6000°E)
Time: 00:47:26
(UTC+00:00)

Cosmos 1269 Rocket - Pass Details

Date: 12 May 2021
Orbit: 773 x 778 km, 74.1° (Epoch: 23 June)

Event Time Altitude Azimuth Distance (km) Brightness Sun altitude
Rises 23:31:27 0° 341° (NNW) 3,266 8.3 -25.8°
Reaches altitude 10° 23:33:53 10° 345° (NNW) 2,333 7.4 -25.8°
Maximum altitude 23:39:08 60° 65° (ENE) 887 4.3 -25.7°
Enters shadow 23:40:05 51° 109° (ESE) 971 4.3 -25.7°
